Location: Huntsville
(41.2590°N, 111.7678°W)
Time: 05:40:53
(UTC+00:00)

SR - Pass Details

Date: 20 June 2021
Orbit: 577 x 878 km, 66.7° (Epoch: 26 July)

Event Time Altitude Azimuth Distance (km) Brightness Sun altitude
Rises 08:35:16 0° 331° (NNW) 3,282 ? -23.5°
Reaches altitude 10° 08:37:48 10° 333° (NNW) 2,303 ? -23.3°
Maximum altitude 08:43:03 75° 59° (ENE) 741 ? -23.0°
Enters shadow 08:44:41 42° 135° (SE) 992 ? -22.9°
